Dashboard

GC7XB5P - 10# De Blauwbloezen

by Expie

published: Wed, 12 Sep 2018 8:04:00 am

Certitude Solution



Puzzle stats
111 Woo-Hoo!
253 D'Oh!
Latest activity:
Tue, 18 Sep 2018
Note that some of those attempts may have been anonymous.



You can subscribe to an RSS feed for:
 this puzzle
 Expie's puzzles
 puzzles in N50 E004 quadrangle
 puzzles in Vlaams-Brabant
 all puzzles

Your geocaching name is unknown, please sign in to identify yourself. How does it work?

Puzzle solvers, you can certify your solution here:
Show solution 
Show attempts 

(keyword required)
  Stay anonymous

Certified solvers

RankUserTime (Brussels, Europe)
1.DwiggerWed, 12 Sep 2018 8:16:13 am
2.KoidreamWed, 12 Sep 2018 8:32:02 am
3.KamaSnurkaWed, 12 Sep 2018 8:54:36 am
4.EveRan2013Wed, 12 Sep 2018 9:28:30 am
5.soyoyastWed, 12 Sep 2018 9:37:16 am
6.JoanyoWed, 12 Sep 2018 10:05:10 am
7.GeroMinosWed, 12 Sep 2018 10:06:32 am
8.johnny lightningWed, 12 Sep 2018 10:13:56 am
9.HuntingBWed, 12 Sep 2018 10:16:24 am
10.brestWed, 12 Sep 2018 10:32:52 am
11.JeankeMotarWed, 12 Sep 2018 10:51:29 am
12.kadeekesWed, 12 Sep 2018 11:06:23 am
13.WaldogWed, 12 Sep 2018 12:34:31 pm
14.heksemie anirca62Wed, 12 Sep 2018 12:43:21 pm
15.Edine4geoWed, 12 Sep 2018 1:05:27 pm
16.krisalninWed, 12 Sep 2018 1:13:43 pm
17.Sabbi17Wed, 12 Sep 2018 1:29:55 pm
18.badmintonnersWed, 12 Sep 2018 1:30:06 pm
19.willy boy1Wed, 12 Sep 2018 2:34:37 pm
20.team fredstromWed, 12 Sep 2018 2:53:13 pm
21.BriSan.Wed, 12 Sep 2018 3:11:31 pm
22.wandeltrakkerWed, 12 Sep 2018 3:19:01 pm
23.ZwuzzeWed, 12 Sep 2018 3:42:27 pm
24.sponskenWed, 12 Sep 2018 4:32:42 pm
25.sweetjoeWed, 12 Sep 2018 5:20:08 pm
26.de vliegenvangersWed, 12 Sep 2018 5:36:49 pm
27.Hannah_NWed, 12 Sep 2018 6:00:48 pm
28.prins6Wed, 12 Sep 2018 6:06:17 pm
29.snollebollekesWed, 12 Sep 2018 6:27:46 pm
30.ErannWed, 12 Sep 2018 6:46:36 pm
31.Bruintje.de.beerWed, 12 Sep 2018 6:53:33 pm
32.daniella&julienWed, 12 Sep 2018 7:12:46 pm
33.lowie49Wed, 12 Sep 2018 7:30:00 pm
34.egelshofWed, 12 Sep 2018 7:31:36 pm
35.haka1Wed, 12 Sep 2018 7:57:06 pm
36.TORRAXWed, 12 Sep 2018 8:13:46 pm
37.yves2806Wed, 12 Sep 2018 8:20:46 pm
38.lifraWed, 12 Sep 2018 8:56:15 pm
39.weba25Wed, 12 Sep 2018 9:41:59 pm
40.VOSPAMAWed, 12 Sep 2018 9:55:39 pm
41.tfxerWed, 12 Sep 2018 9:58:33 pm
42.The LevellersWed, 12 Sep 2018 10:10:03 pm
43.OGTariWed, 12 Sep 2018 10:11:58 pm
44.maguy15Wed, 12 Sep 2018 10:19:45 pm
45.LuintoSTWed, 12 Sep 2018 10:30:07 pm
46.Stylo & JoskeWed, 12 Sep 2018 10:36:46 pm
47.Joske0304699Wed, 12 Sep 2018 11:42:57 pm
48.PoeFThu, 13 Sep 2018 12:45:12 am
49.rommarThu, 13 Sep 2018 9:22:44 am
50.Ricky50Thu, 13 Sep 2018 11:22:59 am
51.timmy2730Thu, 13 Sep 2018 2:02:29 pm
52.R_JThu, 13 Sep 2018 3:47:29 pm
53.mikee67Thu, 13 Sep 2018 4:09:34 pm
54.geo_bartendanielleThu, 13 Sep 2018 5:29:09 pm
55.HEYTSEThu, 13 Sep 2018 8:02:18 pm
56.KnokkertjeThu, 13 Sep 2018 9:52:41 pm
57.Scallie73Thu, 13 Sep 2018 10:21:13 pm
58.GeellukamajaThu, 13 Sep 2018 10:27:44 pm
59.machpatThu, 13 Sep 2018 11:25:24 pm
60.Nettles2014Fri, 14 Sep 2018 7:57:43 am
61.akelaindeweerFri, 14 Sep 2018 10:17:28 am
62.tesslooFri, 14 Sep 2018 10:29:41 am
63.Dine =)Fri, 14 Sep 2018 1:34:55 pm
64.tinrafFri, 14 Sep 2018 3:42:52 pm
65.liliremFri, 14 Sep 2018 4:37:45 pm
66.johannemieFri, 14 Sep 2018 5:47:55 pm
67.kato3Fri, 14 Sep 2018 6:51:47 pm
68.veromekeFri, 14 Sep 2018 8:51:32 pm
69.TeamYarDieFri, 14 Sep 2018 10:30:18 pm
70.2donickySat, 15 Sep 2018 6:29:20 pm
71.golodhSat, 15 Sep 2018 8:50:22 pm
72.CrapionSat, 15 Sep 2018 9:45:05 pm
73.DenDulleSat, 15 Sep 2018 10:10:49 pm
74.DEN TROLSun, 16 Sep 2018 3:31:13 pm
75.KHU1Sun, 16 Sep 2018 7:33:54 pm
76.KLUPPELSun, 16 Sep 2018 8:43:27 pm
77.Edenchris1959Mon, 17 Sep 2018 3:00:21 pm
78.lankatrasMon, 17 Sep 2018 3:52:49 pm
79.tripper13Mon, 17 Sep 2018 4:15:52 pm
80.famandusMon, 17 Sep 2018 4:51:27 pm
81.fravanoMon, 17 Sep 2018 8:14:51 pm
82.homeboyMon, 17 Sep 2018 9:14:40 pm
83.BergheboyMon, 17 Sep 2018 9:26:09 pm
84.PtitmamanNeroBelgiumTue, 18 Sep 2018 12:55:40 pm
85.AladaubeTue, 18 Sep 2018 5:39:44 pm
86.De woesten en SmurfelTue, 18 Sep 2018 7:44:50 pm
87.Team_Griml0rdTue, 18 Sep 2018 9:35:49 pm
88.tigerententeamTue, 18 Sep 2018 9:44:02 pm
89.RudyDCTue, 18 Sep 2018 11:46:03 pm